Time,TemperatureF,DewpointF,PressureIn,WindDirection,WindDirectionDegrees,WindSpeedMPH,WindSpeedGustMPH,Humidity,HourlyPrecipIn,Conditions,Clouds,dailyrainin,SoftwareType,DateUTC
2013-01-08 00:04:00,42.7,40.8,30.19,South,181,0.0,0.0,93,0.00,RA,,0.00,WeatherDisplay:10.37,2013-01-08 08:04:00,
2013-01-08 00:09:00,42.6,40.7,30.19,South,181,0.0,0.0,93,0.00,RA,,0.00,WeatherDisplay:10.37,2013-01-08 08:09:00,
2013-01-08 00:14:00,42.4,40.5,30.20,South,181,0.0,0.0,93,0.00,,,0.00,WeatherDisplay:10.37,2013-01-08 08:14:00,
2013-01-08 00:19:00,42.4,40.5,30.19,South,181,0.0,0.0,93,0.00,,,0.00,WeatherDisplay:10.37,2013-01-08 08:19:00,
2013-01-08 00:24:00,42.5,40.6,30.19,South,181,0.0,0.0,93,0.00,,,0.00,WeatherDisplay:10.37,2013-01-08 08:24:00,
2013-01-08 00:29:00,42.5,40.6,30.19,South,181,0.0,0.0,93,0.00,,,0.00,WeatherDisplay:10.37,2013-01-08 08:29:00,
2013-01-08 00:34:00,42.4,40.5,30.19,South,181,0.0,0.0,93,0.00,,,0.00,WeatherDisplay:10.37,2013-01-08 08:34:00,
2013-01-08 00:39:00,42.2,40.3,30.20,South,181,0.0,0.0,93,0.00,,,0.00,WeatherDisplay:10.37,2013-01-08 08:39:00,
2013-01-08 00:44:00,42.2,40.3,30.20,South,181,0.0,0.0,93,0.00,,,0.00,WeatherDisplay:10.37,2013-01-08 08:44:00,
2013-01-08 00:49:00,42.0,40.1,30.20,South,181,0.0,0.0,93,0.00,,,0.00,WeatherDisplay:10.37,2013-01-08 08:49:00,
2013-01-08 00:54:00,42.0,40.1,30.20,South,181,0.0,0.0,93,0.00,,,0.00,WeatherDisplay:10.37,2013-01-08 08:54:00,
2013-01-08 00:59:00,41.9,40.0,30.20,South,181,0.0,0.0,93,0.00,,,0.00,WeatherDisplay:10.37,2013-01-08 08:59:00,
2013-01-08 01:04:00,41.8,39.9,30.20,South,181,0.0,0.0,93,0.00,,,0.00,WeatherDisplay:10.37,2013-01-08 09:04:00,
2013-01-08 01:09:00,41.9,40.0,30.20,South,181,0.0,0.0,93,0.00,,,0.00,WeatherDisplay:10.37,2013-01-08 09:09:00,
2013-01-08 01:14:00,42.0,40.1,30.20,South,181,0.0,0.0,93,0.00,,,0.00,WeatherDisplay:10.37,2013-01-08 09:14:00,
2013-01-08 01:19:00,42.0,40.1,30.20,South,181,0.0,0.0,93,0.00,,,0.00,WeatherDisplay:10.37,2013-01-08 09:19:00,
2013-01-08 01:24:00,41.9,40.0,30.20,South,181,0.0,0.0,93,0.00,,,0.00,WeatherDisplay:10.37,2013-01-08 09:24:00,
2013-01-08 01:29:00,41.8,39.9,30.21,South,183,0.0,0.0,93,0.00,,,0.00,WeatherDisplay:10.37,2013-01-08 09:29:00,
2013-01-08 01:34:00,41.8,39.9,30.21,South,183,0.0,0.0,93,0.00,,,0.00,WeatherDisplay:10.37,2013-01-08 09:34:00,
2013-01-08 01:39:00,41.7,39.8,30.21,South,183,0.0,0.0,93,0.00,,,0.00,WeatherDisplay:10.37,2013-01-08 09:39:00,
2013-01-08 01:44:00,41.6,39.7,30.21,South,183,0.0,0.0,93,0.00,,,0.00,WeatherDisplay:10.37,2013-01-08 09:44:00,
2013-01-08 01:49:00,41.5,39.6,30.21,South,183,0.0,0.0,93,0.00,,,0.00,WeatherDisplay:10.37,2013-01-08 09:49:00,
2013-01-08 01:54:00,41.4,39.5,30.20,South,183,0.0,0.0,93,0.00,,,0.00,WeatherDisplay:10.37,2013-01-08 09:54:00,
2013-01-08 01:59:00,41.2,39.3,30.20,South,183,0.0,0.0,93,0.00,,,0.00,WeatherDisplay:10.37,2013-01-08 09:59:00,
2013-01-08 02:04:00,41.1,39.2,30.20,South,183,0.0,0.0,93,0.00,,,0.00,WeatherDisplay:10.37,2013-01-08 10:04:00,
2013-01-08 02:09:00,40.9,39.0,30.20,South,183,0.0,0.0,93,0.00,,,0.00,WeatherDisplay:10.37,2013-01-08 10:09:00,
2013-01-08 02:14:00,40.8,38.9,30.20,South,183,0.0,0.0,93,0.00,,,0.00,WeatherDisplay:10.37,2013-01-08 10:14:00,
2013-01-08 02:19:00,40.7,38.8,30.20,South,183,0.0,0.0,93,0.00,,,0.00,WeatherDisplay:10.37,2013-01-08 10:19:00,
2013-01-08 02:24:00,40.7,38.8,30.20,South,183,0.0,0.0,93,0.00,,,0.00,WeatherDisplay:10.37,2013-01-08 10:24:00,
2013-01-08 02:29:00,40.6,38.7,30.20,South,181,0.0,0.0,93,0.00,,,0.00,WeatherDisplay:10.37,2013-01-08 10:29:00,
2013-01-08 02:34:00,40.6,38.7,30.20,South,181,0.0,0.0,93,0.00,,,0.00,WeatherDisplay:10.37,2013-01-08 10:34:00,
2013-01-08 02:39:00,40.5,38.6,30.20,South,181,0.0,0.0,93,0.00,,,0.00,WeatherDisplay:10.37,2013-01-08 10:39:00,
2013-01-08 02:44:00,40.4,38.5,30.20,South,181,0.0,0.0,93,0.00,,,0.00,WeatherDisplay:10.37,2013-01-08 10:44:00,
2013-01-08 02:49:00,40.3,38.4,30.20,South,181,0.0,0.0,93,0.00,,,0.00,WeatherDisplay:10.37,2013-01-08 10:49:00,
2013-01-08 02:54:00,40.3,38.4,30.20,South,181,0.0,0.0,93,0.00,,,0.00,WeatherDisplay:10.37,2013-01-08 10:54:00,
2013-01-08 02:59:00,40.2,38.3,30.20,South,181,0.0,0.0,93,0.00,,,0.00,WeatherDisplay:10.37,2013-01-08 10:59:00,
2013-01-08 03:04:00,40.1,38.2,30.19,South,181,0.0,0.0,93,0.00,,,0.00,WeatherDisplay:10.37,2013-01-08 11:04:00,
2013-01-08 03:09:00,40.0,38.1,30.19,South,181,0.0,0.0,93,0.00,,,0.00,WeatherDisplay:10.37,2013-01-08 11:09:00,
2013-01-08 03:14:00,40.0,38.1,30.19,South,181,0.0,0.0,93,0.00,,,0.00,WeatherDisplay:10.37,2013-01-08 11:14:00,
2013-01-08 03:19:00,39.9,38.0,30.19,South,181,0.0,0.0,93,0.00,,,0.00,WeatherDisplay:10.37,2013-01-08 11:19:00,
2013-01-08 03:24:00,39.9,38.0,30.19,South,181,0.0,0.0,93,0.00,,,0.00,WeatherDisplay:10.37,2013-01-08 11:24:00,
2013-01-08 03:29:00,39.8,37.9,30.19,South,181,0.0,0.0,93,0.00,,,0.00,WeatherDisplay:10.37,2013-01-08 11:29:00,
2013-01-08 03:34:00,39.7,37.8,30.19,South,183,0.0,0.0,93,0.00,,,0.00,WeatherDisplay:10.37,2013-01-08 11:34:00,
2013-01-08 03:39:00,39.7,37.8,30.19,South,183,0.0,0.0,93,0.00,,,0.00,WeatherDisplay:10.37,2013-01-08 11:39:00,
2013-01-08 03:44:00,39.7,37.8,30.19,South,183,0.0,0.0,93,0.00,,,0.00,WeatherDisplay:10.37,2013-01-08 11:44:00,
2013-01-08 03:49:00,39.6,37.7,30.19,South,183,0.0,0.0,93,0.00,,,0.00,WeatherDisplay:10.37,2013-01-08 11:49:00,
2013-01-08 03:54:00,39.6,37.7,30.19,South,183,0.0,0.0,93,0.00,,,0.00,WeatherDisplay:10.37,2013-01-08 11:54:00,
2013-01-08 03:59:00,39.6,37.7,30.19,South,183,0.0,0.0,93,0.00,,,0.00,WeatherDisplay:10.37,2013-01-08 11:59:00,
2013-01-08 04:04:00,39.4,37.5,30.19,South,183,0.0,0.0,93,0.00,,,0.00,WeatherDisplay:10.37,2013-01-08 12:04:00,
2013-01-08 04:09:00,39.2,37.3,30.19,South,183,0.0,0.0,93,0.00,,,0.00,WeatherDisplay:10.37,2013-01-08 12:09:00,
2013-01-08 04:14:00,39.1,37.2,30.19,South,183,0.0,0.0,93,0.00,,,0.00,WeatherDisplay:10.37,2013-01-08 12:14:00,
2013-01-08 04:19:00,38.9,37.0,30.20,South,183,0.0,0.0,93,0.00,,,0.00,WeatherDisplay:10.37,2013-01-08 12:19:00,
2013-01-08 04:24:00,38.8,36.9,30.20,South,183,0.0,0.0,93,0.00,,,0.00,WeatherDisplay:10.37,2013-01-08 12:24:00,
2013-01-08 04:29:00,38.7,36.9,30.20,South,183,0.0,0.0,93,0.00,,,0.00,WeatherDisplay:10.37,2013-01-08 12:29:00,
2013-01-08 04:34:00,38.6,36.8,30.20,South,183,0.0,0.0,93,0.00,,,0.00,WeatherDisplay:10.37,2013-01-08 12:34:00,
2013-01-08 04:39:00,38.5,36.7,30.20,South,183,0.0,0.0,93,0.00,,,0.00,WeatherDisplay:10.37,2013-01-08 12:39:00,
2013-01-08 04:44:00,38.5,36.7,30.20,South,183,0.0,0.0,93,0.00,,,0.00,WeatherDisplay:10.37,2013-01-08 12:44:00,
2013-01-08 04:49:00,38.5,36.7,30.20,South,183,0.0,0.0,93,0.00,,,0.00,WeatherDisplay:10.37,2013-01-08 12:49:00,
2013-01-08 04:54:00,38.5,36.7,30.20,South,183,0.0,0.0,93,0.00,,,0.00,WeatherDisplay:10.37,2013-01-08 12:54:00,
2013-01-08 04:59:00,38.6,36.8,30.19,South,183,0.0,0.0,93,0.00,,,0.00,WeatherDisplay:10.37,2013-01-08 12:59:00,
2013-01-08 05:04:00,38.6,36.8,30.20,South,183,0.0,0.0,93,0.00,,,0.00,WeatherDisplay:10.37,2013-01-08 13:04:00,
2013-01-08 05:09:00,38.5,36.7,30.19,South,181,0.0,0.0,93,0.00,,,0.00,WeatherDisplay:10.37,2013-01-08 13:09:00,
2013-01-08 05:14:00,38.7,36.9,30.19,South,181,0.0,0.0,93,0.00,,,0.00,WeatherDisplay:10.37,2013-01-08 13:14:00,
2013-01-08 05:19:00,38.6,36.8,30.19,South,183,0.0,0.0,93,0.00,,,0.00,WeatherDisplay:10.37,2013-01-08 13:19:00,
2013-01-08 05:24:00,38.6,36.8,30.19,South,183,0.0,0.0,93,0.00,,,0.00,WeatherDisplay:10.37,2013-01-08 13:24:00,
2013-01-08 05:29:00,38.6,36.8,30.19,South,183,0.0,0.0,93,0.00,,,0.00,WeatherDisplay:10.37,2013-01-08 13:29:00,
2013-01-08 05:34:00,38.5,36.7,30.19,South,183,0.0,0.0,93,0.00,,,0.00,WeatherDisplay:10.37,2013-01-08 13:34:00,
2013-01-08 05:39:00,38.5,36.7,30.19,South,181,0.0,0.0,93,0.00,,,0.00,WeatherDisplay:10.37,2013-01-08 13:39:00,
2013-01-08 05:44:00,38.5,36.7,30.19,South,181,0.0,0.0,93,0.00,,,0.00,WeatherDisplay:10.37,2013-01-08 13:44:00,
2013-01-08 05:49:00,38.5,36.7,30.19,South,181,0.0,0.0,93,0.00,,,0.00,WeatherDisplay:10.37,2013-01-08 13:49:00,
2013-01-08 05:54:00,38.4,36.6,30.19,South,181,0.0,0.0,93,0.00,,,0.00,WeatherDisplay:10.37,2013-01-08 13:54:00,
2013-01-08 05:59:00,38.4,36.6,30.20,South,183,0.0,0.0,93,0.00,,,0.00,WeatherDisplay:10.37,2013-01-08 13:59:00,
2013-01-08 06:04:00,38.5,36.7,30.20,South,183,0.0,0.0,93,0.00,,,0.00,WeatherDisplay:10.37,2013-01-08 14:04:00,
2013-01-08 06:09:00,38.6,36.8,30.20,South,183,0.0,0.0,93,0.00,,,0.00,WeatherDisplay:10.37,2013-01-08 14:09:00,
2013-01-08 06:14:00,38.7,36.9,30.20,South,183,0.0,0.0,93,0.00,,,0.00,WeatherDisplay:10.37,2013-01-08 14:14:00,
2013-01-08 06:19:00,38.5,36.7,30.20,South,183,0.0,0.0,93,0.00,,,0.00,WeatherDisplay:10.37,2013-01-08 14:19:00,
2013-01-08 06:24:00,38.4,36.6,30.20,South,183,0.0,0.0,93,0.00,,,0.00,WeatherDisplay:10.37,2013-01-08 14:24:00,
2013-01-08 06:29:00,38.3,36.5,30.20,South,183,0.0,0.0,93,0.00,,,0.00,WeatherDisplay:10.37,2013-01-08 14:29:00,
2013-01-08 06:34:00,38.2,36.4,30.20,South,183,0.0,0.0,93,0.00,,,0.00,WeatherDisplay:10.37,2013-01-08 14:34:00,
2013-01-08 06:39:00,38.1,36.3,30.20,South,183,0.0,0.0,93,0.00,,,0.00,WeatherDisplay:10.37,2013-01-08 14:39:00,
2013-01-08 06:44:00,38.1,36.3,30.21,South,183,0.0,0.0,93,0.00,,,0.00,WeatherDisplay:10.37,2013-01-08 14:44:00,
2013-01-08 06:49:00,38.0,36.2,30.21,South,183,0.0,0.0,93,0.00,,,0.00,WeatherDisplay:10.37,2013-01-08 14:49:00,
2013-01-08 06:54:00,38.0,36.2,30.21,South,183,0.0,0.0,93,0.00,,,0.00,WeatherDisplay:10.37,2013-01-08 14:54:00,
2013-01-08 06:59:00,38.0,36.2,30.21,South,183,0.0,0.0,93,0.00,,,0.00,WeatherDisplay:10.37,2013-01-08 14:59:00,
2013-01-08 07:04:00,38.0,36.2,30.21,South,183,0.0,0.0,93,0.00,CLR,,0.00,WeatherDisplay:10.37,2013-01-08 15:04:00,
2013-01-08 07:09:00,37.9,36.1,30.21,South,183,0.0,0.0,93,0.00,CLR,,0.00,WeatherDisplay:10.37,2013-01-08 15:09:00,
2013-01-08 07:14:00,37.8,36.0,30.21,South,183,0.0,0.0,93,0.00,CLR,,0.00,WeatherDisplay:10.37,2013-01-08 15:14:00,
2013-01-08 07:19:00,37.7,35.9,30.22,South,183,0.0,0.0,93,0.00,CLR,,0.00,WeatherDisplay:10.37,2013-01-08 15:19:00,
2013-01-08 07:24:00,37.7,35.9,30.22,South,184,0.0,0.0,93,0.00,CLR,,0.00,WeatherDisplay:10.37,2013-01-08 15:24:00,
2013-01-08 07:29:00,37.6,35.8,30.22,South,183,0.0,0.0,93,0.00,CLR,,0.00,WeatherDisplay:10.37,2013-01-08 15:29:00,
2013-01-08 07:34:00,37.6,35.8,30.22,South,183,0.0,0.0,93,0.00,CLR,,0.00,WeatherDisplay:10.37,2013-01-08 15:34:00,
2013-01-08 07:39:00,37.6,35.8,30.22,South,183,0.0,0.0,93,0.00,CLR,,0.00,WeatherDisplay:10.37,2013-01-08 15:39:00,
2013-01-08 07:44:00,37.5,35.7,30.22,South,183,0.0,0.0,93,0.00,CLR,,0.00,WeatherDisplay:10.37,2013-01-08 15:44:00,
2013-01-08 07:49:00,37.6,35.8,30.22,South,183,0.0,0.0,93,0.00,CLR,,0.00,WeatherDisplay:10.37,2013-01-08 15:49:00,
2013-01-08 07:54:00,37.6,35.8,30.23,South,183,0.0,0.0,93,0.00,CLR,,0.00,WeatherDisplay:10.37,2013-01-08 15:54:00,
2013-01-08 07:59:00,37.8,36.0,30.23,South,183,0.0,0.0,93,0.00,CLR,,0.00,WeatherDisplay:10.37,2013-01-08 15:59:00,
2013-01-08 08:04:00,37.9,36.1,30.23,South,183,0.0,0.0,93,0.00,CLR,,0.00,WeatherDisplay:10.37,2013-01-08 16:04:00,
2013-01-08 08:09:00,38.1,36.3,30.24,South,183,0.0,0.0,93,0.00,CLR,,0.00,WeatherDisplay:10.37,2013-01-08 16:09:00,
2013-01-08 08:14:00,38.4,36.6,30.24,South,183,0.0,0.0,93,0.00,CLR,,0.00,WeatherDisplay:10.37,2013-01-08 16:14:00,
2013-01-08 08:19:00,38.6,36.8,30.25,South,183,0.0,0.0,93,0.00,CLR,,0.00,WeatherDisplay:10.37,2013-01-08 16:19:00,
2013-01-08 08:24:00,38.8,36.9,30.25,South,183,0.0,0.0,93,0.00,CLR,,0.00,WeatherDisplay:10.37,2013-01-08 16:24:00,
2013-01-08 08:29:00,39.3,37.4,30.25,South,183,0.0,0.0,93,0.00,CLR,,0.00,WeatherDisplay:10.37,2013-01-08 16:29:00,
2013-01-08 08:34:00,39.7,37.8,30.25,South,183,0.0,0.0,93,0.00,CLR,,0.00,WeatherDisplay:10.37,2013-01-08 16:34:00,
2013-01-08 08:39:00,40.2,38.3,30.25,South,184,0.0,0.0,93,0.00,CLR,,0.00,WeatherDisplay:10.37,2013-01-08 16:39:00,
2013-01-08 08:44:00,40.7,38.8,30.25,South,181,0.0,0.0,93,0.00,CLR,,0.00,WeatherDisplay:10.37,2013-01-08 16:44:00,
2013-01-08 08:49:00,41.2,39.6,30.25,South,181,0.0,0.0,94,0.00,CLR,,0.00,WeatherDisplay:10.37,2013-01-08 16:49:00,
2013-01-08 08:54:00,41.6,40.0,30.25,South,181,0.0,0.0,94,0.00,CLR,,0.00,WeatherDisplay:10.37,2013-01-08 16:54:00,
2013-01-08 08:59:00,42.1,40.5,30.25,South,181,0.0,0.0,94,0.00,CLR,,0.00,WeatherDisplay:10.37,2013-01-08 16:59:00,
2013-01-08 09:04:00,42.7,41.1,30.25,South,181,0.0,0.0,94,0.00,CLR,,0.00,WeatherDisplay:10.37,2013-01-08 17:04:00,
2013-01-08 09:09:00,43.2,41.6,30.25,South,181,0.0,0.0,94,0.00,CLR,,0.00,WeatherDisplay:10.37,2013-01-08 17:09:00,
2013-01-08 09:14:00,43.7,42.1,30.25,South,181,0.0,0.0,94,0.00,CLR,,0.00,WeatherDisplay:10.37,2013-01-08 17:14:00,
2013-01-08 09:19:00,44.1,42.5,30.25,South,181,0.0,0.0,94,0.00,CLR,,0.00,WeatherDisplay:10.37,2013-01-08 17:19:00,
2013-01-08 09:24:00,44.6,43.0,30.25,South,181,0.0,0.0,94,0.00,CLR,,0.00,WeatherDisplay:10.37,2013-01-08 17:24:00,
2013-01-08 09:29:00,45.1,43.5,30.25,South,183,0.0,0.0,94,0.00,CLR,,0.00,WeatherDisplay:10.37,2013-01-08 17:29:00,
2013-01-08 09:34:00,45.9,44.3,30.25,South,181,0.0,0.0,94,0.00,CLR,,0.00,WeatherDisplay:10.37,2013-01-08 17:34:00,
2013-01-08 09:39:00,46.5,44.9,30.25,South,181,0.0,0.0,94,0.00,CLR,,0.00,WeatherDisplay:10.37,2013-01-08 17:39:00,
2013-01-08 09:44:00,47.1,45.5,30.25,South,181,0.0,0.0,94,0.00,CLR,,0.00,WeatherDisplay:10.37,2013-01-08 17:44:00,
2013-01-08 09:49:00,47.3,45.7,30.25,South,183,0.0,0.0,94,0.00,CLR,,0.00,WeatherDisplay:10.37,2013-01-08 17:49:00,
2013-01-08 09:54:00,47.8,46.2,30.25,WNW,283,1.2,1.2,94,0.00,CLR,,0.00,WeatherDisplay:10.37,2013-01-08 17:54:00,
2013-01-08 09:59:00,48.3,46.7,30.25,WNW,288,0.0,0.0,94,0.00,CLR,,0.00,WeatherDisplay:10.37,2013-01-08 17:59:00,
2013-01-08 10:04:00,48.9,47.2,30.25,West,262,0.0,0.0,94,0.00,CLR,,0.00,WeatherDisplay:10.37,2013-01-08 18:04:00,
2013-01-08 10:09:00,49.5,47.8,30.25,WNW,283,0.0,0.0,94,0.00,CLR,,0.00,WeatherDisplay:10.37,2013-01-08 18:09:00,
2013-01-08 10:14:00,49.9,48.2,30.25,West,265,0.0,0.1,94,0.00,CLR,,0.00,WeatherDisplay:10.37,2013-01-08 18:14:00,
2013-01-08 10:19:00,50.3,48.6,30.25,SW,222,1.2,0.0,94,0.00,CLR,,0.00,WeatherDisplay:10.37,2013-01-08 18:19:00,
2013-01-08 10:24:00,50.7,49.0,30.25,WNW,287,0.0,0.0,94,0.00,CLR,,0.00,WeatherDisplay:10.37,2013-01-08 18:24:00,
2013-01-08 10:29:00,51.0,49.3,30.24,WNW,287,0.0,0.0,94,0.00,CLR,,0.00,WeatherDisplay:10.37,2013-01-08 18:29:00,
2013-01-08 10:34:00,51.2,49.5,30.24,NNE,22,0.0,0.0,94,0.00,CLR,,0.00,WeatherDisplay:10.37,2013-01-08 18:34:00,
2013-01-08 10:39:00,51.5,49.8,30.24,NNE,22,0.0,0.0,94,0.00,CLR,,0.00,WeatherDisplay:10.37,2013-01-08 18:39:00,
2013-01-08 10:44:00,51.8,50.1,30.24,NE,39,0.0,0.0,94,0.00,CLR,,0.00,WeatherDisplay:10.37,2013-01-08 18:44:00,
2013-01-08 10:49:00,52.1,50.4,30.24,WSW,243,1.0,1.0,94,0.00,CLR,,0.00,WeatherDisplay:10.37,2013-01-08 18:49:00,
2013-01-08 10:54:00,52.4,50.7,30.24,WSW,253,1.2,1.2,94,0.00,CLR,,0.00,WeatherDisplay:10.37,2013-01-08 18:54:00,
2013-01-08 10:59:00,52.4,50.7,30.23,SSW,205,1.2,1.2,94,0.00,CLR,,0.00,WeatherDisplay:10.37,2013-01-08 18:59:00,
2013-01-08 11:04:00,52.7,50.7,30.22,North,6,2.3,0.0,93,0.00,CLR,,0.00,WeatherDisplay:10.37,2013-01-08 19:04:00,
2013-01-08 11:09:00,53.0,51.0,30.22,North,4,3.5,3.5,93,0.00,CLR,,0.00,WeatherDisplay:10.37,2013-01-08 19:09:00,
2013-01-08 11:14:00,53.3,51.3,30.22,North,3,0.0,0.0,93,0.00,CLR,,0.00,WeatherDisplay:10.37,2013-01-08 19:14:00,
2013-01-08 11:19:00,53.1,51.1,30.22,North,11,2.3,2.3,93,0.00,CLR,,0.00,WeatherDisplay:10.37,2013-01-08 19:19:00,
2013-01-08 11:24:00,53.0,51.0,30.21,NNE,12,0.0,0.0,93,0.00,CLR,,0.00,WeatherDisplay:10.37,2013-01-08 19:24:00,
2013-01-08 11:29:00,53.6,51.6,30.20,NNE,25,1.2,1.2,93,0.00,CLR,,0.00,WeatherDisplay:10.37,2013-01-08 19:29:00,
2013-01-08 11:34:00,54.3,52.3,30.20,East,95,1.0,0.0,93,0.00,CLR,,0.00,WeatherDisplay:10.37,2013-01-08 19:34:00,
2013-01-08 11:39:00,54.8,52.8,30.19,East,93,1.2,0.0,93,0.00,CLR,,0.00,WeatherDisplay:10.37,2013-01-08 19:39:00,
2013-01-08 11:44:00,55.3,53.3,30.19,ENE,60,2.3,2.3,93,0.00,CLR,,0.00,WeatherDisplay:10.37,2013-01-08 19:44:00,
2013-01-08 11:49:00,55.8,53.8,30.19,North,8,3.0,3.0,93,0.00,CLR,,0.00,WeatherDisplay:10.37,2013-01-08 19:49:00,
2013-01-08 11:54:00,56.0,53.4,30.19,ENE,61,0.0,0.0,91,0.00,CLR,,0.00,WeatherDisplay:10.37,2013-01-08 19:54:00,
2013-01-08 11:59:00,56.6,53.7,30.19,NNE,33,1.2,1.2,90,0.00,CLR,,0.00,WeatherDisplay:10.37,2013-01-08 19:59:00,
2013-01-08 12:04:00,57.3,53.5,30.18,NNE,13,0.0,0.0,87,0.00,CLR,,0.00,WeatherDisplay:10.37,2013-01-08 20:04:00,
2013-01-08 12:09:00,58.0,52.5,30.18,ENE,65,1.2,0.0,82,0.00,CLR,,0.00,WeatherDisplay:10.37,2013-01-08 20:09:00,
2013-01-08 12:14:00,58.5,51.0,30.18,NNE,13,2.0,2.0,76,0.00,CLR,,0.00,WeatherDisplay:10.37,2013-01-08 20:14:00,
2013-01-08 12:19:00,58.9,51.3,30.17,NNE,25,0.0,0.0,76,0.00,CLR,,0.00,WeatherDisplay:10.37,2013-01-08 20:19:00,
2013-01-08 12:24:00,59.3,51.0,30.17,NNE,25,0.0,0.0,74,0.00,CLR,,0.00,WeatherDisplay:10.37,2013-01-08 20:24:00,
2013-01-08 12:29:00,59.7,50.7,30.17,ENE,60,0.0,0.0,72,0.00,CLR,,0.00,WeatherDisplay:10.37,2013-01-08 20:29:00,
2013-01-08 12:34:00,60.0,50.2,30.17,ENE,71,3.5,3.5,70,0.00,CLR,,0.00,WeatherDisplay:10.37,2013-01-08 20:34:00,
2013-01-08 12:39:00,60.1,49.9,30.16,North,349,1.2,1.2,69,0.00,CLR,,0.00,WeatherDisplay:10.37,2013-01-08 20:39:00,
2013-01-08 12:44:00,60.2,49.6,30.16,ENE,75,1.2,1.2,68,0.00,CLR,,0.00,WeatherDisplay:10.37,2013-01-08 20:44:00,
2013-01-08 12:49:00,60.5,49.9,30.16,NNE,27,1.2,0.0,68,0.00,CLR,,0.00,WeatherDisplay:10.37,2013-01-08 20:49:00,
2013-01-08 12:54:00,60.8,49.8,30.16,NE,37,3.0,3.0,67,0.00,CLR,,0.00,WeatherDisplay:10.37,2013-01-08 20:54:00,
2013-01-08 12:59:00,60.8,49.8,30.16,East,95,1.0,1.0,67,0.00,CLR,,0.00,WeatherDisplay:10.37,2013-01-08 20:59:00,
2013-01-08 13:04:00,60.8,50.2,30.15,NE,44,1.2,0.0,68,0.00,CLR,,0.00,WeatherDisplay:10.37,2013-01-08 21:04:00,
2013-01-08 13:09:00,60.8,49.4,30.15,East,94,2.3,2.3,66,0.00,CLR,,0.00,WeatherDisplay:10.37,2013-01-08 21:09:00,
2013-01-08 13:14:00,60.9,49.5,30.15,North,11,3.5,3.5,66,0.00,CLR,,0.00,WeatherDisplay:10.37,2013-01-08 21:14:00,
2013-01-08 13:19:00,61.3,49.4,30.15,ENE,68,1.2,1.2,65,0.00,CLR,,0.00,WeatherDisplay:10.37,2013-01-08 21:19:00,
2013-01-08 13:24:00,61.3,48.6,30.15,West,279,2.3,2.3,63,0.00,CLR,,0.00,WeatherDisplay:10.37,2013-01-08 21:24:00,
2013-01-08 13:29:00,61.6,49.7,30.15,NE,49,1.2,1.2,65,0.00,CLR,,0.00,WeatherDisplay:10.37,2013-01-08 21:29:00,
2013-01-08 13:34:00,62.0,49.3,30.15,WNW,284,2.3,2.3,63,0.00,CLR,,0.00,WeatherDisplay:10.37,2013-01-08 21:34:00,
2013-01-08 13:39:00,62.4,48.8,30.15,SW,235,3.5,3.5,61,0.00,CLR,,0.00,WeatherDisplay:10.37,2013-01-08 21:39:00,
2013-01-08 13:44:00,62.8,50.0,30.15,West,276,1.2,0.0,63,0.00,CLR,,0.00,WeatherDisplay:10.37,2013-01-08 21:44:00,
2013-01-08 13:49:00,63.3,49.6,30.14,WNW,302,3.0,3.0,61,0.00,CLR,,0.00,WeatherDisplay:10.37,2013-01-08 21:49:00,
2013-01-08 13:54:00,63.5,49.8,30.14,East,84,1.2,1.2,61,0.00,CLR,,0.00,WeatherDisplay:10.37,2013-01-08 21:54:00,
2013-01-08 13:59:00,63.6,49.5,30.14,SW,233,3.5,3.5,60,0.00,CLR,,0.00,WeatherDisplay:10.37,2013-01-08 21:59:00,
2013-01-08 14:04:00,64.1,49.5,30.14,SSW,195,1.2,1.2,59,0.00,CLR,,0.00,WeatherDisplay:10.37,2013-01-08 22:04:00,
2013-01-08 14:09:00,64.4,48.8,30.14,NW,308,3.5,3.5,57,0.00,CLR,,0.00,WeatherDisplay:10.37,2013-01-08 22:09:00,
2013-01-08 14:14:00,64.0,48.5,30.14,ENE,68,2.3,2.3,57,0.00,CLR,,0.00,WeatherDisplay:10.37,2013-01-08 22:14:00,
2013-01-08 14:19:00,63.8,49.6,30.14,WNW,283,1.2,1.2,60,0.00,CLR,,0.00,WeatherDisplay:10.37,2013-01-08 22:19:00,
2013-01-08 14:24:00,63.9,48.4,30.14,SSW,210,0.0,0.6,57,0.00,CLR,,0.00,WeatherDisplay:10.37,2013-01-08 22:24:00,
2013-01-08 14:29:00,64.2,49.1,30.14,WSW,240,0.0,0.0,58,0.00,CLR,,0.00,WeatherDisplay:10.37,2013-01-08 22:29:00,
2013-01-08 14:34:00,64.8,49.2,30.14,West,276,2.3,2.3,57,0.00,CLR,,0.00,WeatherDisplay:10.37,2013-01-08 22:34:00,
2013-01-08 14:39:00,65.1,50.0,30.14,NE,39,0.0,0.0,58,0.00,CLR,,0.00,WeatherDisplay:10.37,2013-01-08 22:39:00,
2013-01-08 14:44:00,65.2,50.0,30.14,NE,38,1.2,1.2,58,0.00,CLR,,0.00,WeatherDisplay:10.37,2013-01-08 22:44:00,
2013-01-08 14:49:00,65.7,50.5,30.14,SW,226,0.0,0.1,58,0.00,CLR,,0.00,WeatherDisplay:10.37,2013-01-08 22:49:00,
2013-01-08 14:54:00,66.2,50.5,30.14,WNW,284,0.0,0.0,57,0.00,CLR,,0.00,WeatherDisplay:10.37,2013-01-08 22:54:00,
2013-01-08 14:59:00,65.9,50.2,30.14,East,92,0.0,0.5,57,0.00,CLR,,0.00,WeatherDisplay:10.37,2013-01-08 22:59:00,
2013-01-08 15:04:00,65.2,50.0,30.14,NE,44,0.0,0.0,58,0.00,CLR,,0.00,WeatherDisplay:10.37,2013-01-08 23:04:00,
2013-01-08 15:09:00,64.6,49.5,30.14,East,97,0.0,0.0,58,0.00,CLR,,0.00,WeatherDisplay:10.37,2013-01-08 23:09:00,
2013-01-08 15:14:00,64.3,49.2,30.14,NNW,347,0.0,0.0,58,0.00,CLR,,0.00,WeatherDisplay:10.37,2013-01-08 23:14:00,
2013-01-08 15:19:00,63.9,48.8,30.14,ENE,72,0.0,0.0,58,0.00,CLR,,0.00,WeatherDisplay:10.37,2013-01-08 23:19:00,
2013-01-08 15:24:00,63.9,49.3,30.14,NNE,12,1.2,0.0,59,0.00,CLR,,0.00,WeatherDisplay:10.37,2013-01-08 23:24:00,
2013-01-08 15:29:00,63.7,48.6,30.14,NNE,19,2.3,2.3,58,0.00,CLR,,0.00,WeatherDisplay:10.37,2013-01-08 23:29:00,
2013-01-08 15:34:00,63.3,48.3,30.14,NE,44,3.5,3.5,58,0.00,CLR,,0.00,WeatherDisplay:10.37,2013-01-08 23:34:00,
2013-01-08 15:39:00,62.9,48.8,30.14,NNE,22,1.2,1.2,60,0.00,CLR,,0.00,WeatherDisplay:10.37,2013-01-08 23:39:00,
2013-01-08 15:44:00,62.5,48.9,30.14,NE,36,0.0,0.1,61,0.00,CLR,,0.00,WeatherDisplay:10.37,2013-01-08 23:44:00,
2013-01-08 15:49:00,62.2,49.9,30.13,NE,39,1.2,1.2,64,0.00,CLR,,0.00,WeatherDisplay:10.37,2013-01-08 23:49:00,
2013-01-08 15:54:00,61.9,49.2,30.13,North,11,2.3,2.3,63,0.00,CLR,,0.00,WeatherDisplay:10.37,2013-01-08 23:54:00,
2013-01-08 15:59:00,61.5,49.2,30.13,NNE,12,1.2,1.2,64,0.00,CLR,,0.00,WeatherDisplay:10.37,2013-01-08 23:59:00,
2013-01-08 16:04:00,61.1,49.7,30.13,NNE,19,1.2,1.2,66,0.00,CLR,,0.00,WeatherDisplay:10.37,2013-01-09 00:04:00,
2013-01-08 16:09:00,60.8,49.8,30.13,NNE,22,0.0,0.0,67,0.00,CLR,,0.00,WeatherDisplay:10.37,2013-01-09 00:09:00,
2013-01-08 16:14:00,60.5,49.5,30.13,NNE,20,0.0,0.0,67,0.00,CLR,,0.00,WeatherDisplay:10.37,2013-01-09 00:14:00,
2013-01-08 16:19:00,60.1,49.1,30.13,NNE,21,0.0,0.0,67,0.00,CLR,,0.00,WeatherDisplay:10.37,2013-01-09 00:19:00,
2013-01-08 16:24:00,59.8,48.4,30.13,NE,46,1.2,0.0,66,0.00,CLR,,0.00,WeatherDisplay:10.37,2013-01-09 00:24:00,
2013-01-08 16:29:00,59.6,48.6,30.13,NE,47,0.0,0.0,67,0.00,CLR,,0.00,WeatherDisplay:10.37,2013-01-09 00:29:00,
2013-01-08 16:34:00,59.2,48.6,30.13,NE,47,0.0,0.0,68,0.00,CLR,,0.00,WeatherDisplay:10.37,2013-01-09 00:34:00,
2013-01-08 16:39:00,58.8,48.6,30.13,NE,47,0.0,0.0,69,0.00,CLR,,0.00,WeatherDisplay:10.37,2013-01-09 00:39:00,
2013-01-08 16:44:00,58.3,48.6,30.13,NE,47,0.0,0.0,70,0.00,CLR,,0.00,WeatherDisplay:10.37,2013-01-09 00:44:00,
2013-01-08 16:49:00,57.9,48.6,30.12,NE,47,0.0,0.0,71,0.00,CLR,,0.00,WeatherDisplay:10.37,2013-01-09 00:49:00,
2013-01-08 16:54:00,57.5,48.2,30.13,NE,47,0.0,0.0,71,0.00,CLR,,0.00,WeatherDisplay:10.37,2013-01-09 00:54:00,
2013-01-08 16:59:00,57.0,48.1,30.12,NE,47,0.0,0.0,72,0.00,CLR,,0.00,WeatherDisplay:10.37,2013-01-09 00:59:00,
2013-01-08 17:04:00,56.5,47.9,30.12,NE,47,0.0,0.0,73,0.00,CLR,,0.00,WeatherDisplay:10.37,2013-01-09 01:04:00,
2013-01-08 17:09:00,56.0,47.8,30.13,NE,47,0.0,0.0,74,0.00,CLR,,0.00,WeatherDisplay:10.37,2013-01-09 01:09:00,
2013-01-08 17:14:00,55.5,47.7,30.13,NE,47,0.0,0.0,75,0.00,CLR,,0.00,WeatherDisplay:10.37,2013-01-09 01:14:00,
2013-01-08 17:19:00,55.1,47.3,30.13,NE,47,0.0,0.0,75,0.00,CLR,,0.00,WeatherDisplay:10.37,2013-01-09 01:19:00,
2013-01-08 17:24:00,54.6,47.2,30.13,NE,46,0.0,0.0,76,0.00,CLR,,0.00,WeatherDisplay:10.37,2013-01-09 01:24:00,
2013-01-08 17:29:00,54.2,47.5,30.12,NNE,18,0.0,0.0,78,0.00,CLR,,0.00,WeatherDisplay:10.37,2013-01-09 01:29:00,
2013-01-08 17:34:00,53.9,47.2,30.12,NNE,18,0.0,0.0,78,0.00,CLR,,0.00,WeatherDisplay:10.37,2013-01-09 01:34:00,
2013-01-08 17:39:00,53.7,47.3,30.13,WNW,288,1.2,0.0,79,0.00,,,0.00,WeatherDisplay:10.37,2013-01-09 01:39:00,
2013-01-08 17:44:00,53.5,47.1,30.13,WNW,288,0.0,0.0,79,0.00,,,0.00,WeatherDisplay:10.37,2013-01-09 01:44:00,
2013-01-08 17:49:00,53.4,47.4,30.13,WNW,283,0.0,0.0,80,0.00,,,0.00,WeatherDisplay:10.37,2013-01-09 01:49:00,
2013-01-08 17:54:00,53.3,47.3,30.13,West,279,2.3,2.3,80,0.00,,,0.00,WeatherDisplay:10.37,2013-01-09 01:54:00,
2013-01-08 17:59:00,53.1,46.8,30.13,West,278,0.0,0.0,79,0.00,,,0.00,WeatherDisplay:10.37,2013-01-09 01:59:00,
2013-01-08 18:04:00,52.9,46.9,30.13,West,276,0.0,0.0,80,0.00,,,0.00,WeatherDisplay:10.37,2013-01-09 02:04:00,
2013-01-08 18:09:00,52.6,46.6,30.13,SW,219,0.0,0.0,80,0.00,,,0.00,WeatherDisplay:10.37,2013-01-09 02:09:00,
2013-01-08 18:14:00,52.3,46.3,30.13,SW,219,1.2,0.0,80,0.00,,,0.00,WeatherDisplay:10.37,2013-01-09 02:14:00,
2013-01-08 18:19:00,52.0,46.3,30.13,SW,221,0.0,0.0,81,0.00,,,0.00,WeatherDisplay:10.37,2013-01-09 02:19:00,
2013-01-08 18:24:00,51.8,46.2,30.14,SW,219,1.2,0.0,81,0.00,,,0.00,WeatherDisplay:10.37,2013-01-09 02:24:00,
2013-01-08 18:29:00,51.5,46.2,30.14,SW,219,0.0,0.0,82,0.00,,,0.00,WeatherDisplay:10.37,2013-01-09 02:29:00,
2013-01-08 18:34:00,51.2,45.9,30.14,SW,219,0.0,0.0,82,0.00,,,0.00,WeatherDisplay:10.37,2013-01-09 02:34:00,
2013-01-08 18:39:00,51.0,46.0,30.14,SW,219,0.0,0.0,83,0.00,,,0.00,WeatherDisplay:10.37,2013-01-09 02:39:00,
2013-01-08 18:44:00,50.7,45.7,30.14,SW,219,0.0,0.0,83,0.00,,,0.00,WeatherDisplay:10.37,2013-01-09 02:44:00,
2013-01-08 18:49:00,50.4,45.4,30.14,SW,219,0.0,0.0,83,0.00,,,0.00,WeatherDisplay:10.37,2013-01-09 02:49:00,
2013-01-08 18:54:00,50.0,45.0,30.14,SW,219,0.0,0.0,83,0.00,,,0.00,WeatherDisplay:10.37,2013-01-09 02:54:00,
2013-01-08 18:59:00,49.6,44.6,30.14,SW,219,0.0,0.0,83,0.00,,,0.00,WeatherDisplay:10.37,2013-01-09 02:59:00,
2013-01-08 19:04:00,49.3,45.0,30.15,SW,219,0.0,0.0,85,0.00,,,0.00,WeatherDisplay:10.37,2013-01-09 03:04:00,
2013-01-08 19:09:00,49.0,45.0,30.15,SW,219,0.0,0.0,86,0.00,,,0.00,WeatherDisplay:10.37,2013-01-09 03:09:00,
2013-01-08 19:14:00,48.8,44.8,30.14,SW,219,0.0,0.0,86,0.00,,,0.00,WeatherDisplay:10.37,2013-01-09 03:14:00,
2013-01-08 19:19:00,48.5,44.5,30.15,SW,219,0.0,0.0,86,0.00,,,0.00,WeatherDisplay:10.37,2013-01-09 03:19:00,
2013-01-08 19:24:00,48.3,44.6,30.15,SW,219,0.0,0.0,87,0.00,,,0.00,WeatherDisplay:10.37,2013-01-09 03:24:00,
2013-01-08 19:29:00,48.0,44.3,30.15,SW,219,0.0,0.0,87,0.00,,,0.00,WeatherDisplay:10.37,2013-01-09 03:29:00,
2013-01-08 19:34:00,47.7,44.0,30.14,SW,219,0.0,0.0,87,0.00,,,0.00,WeatherDisplay:10.37,2013-01-09 03:34:00,
2013-01-08 19:39:00,47.4,43.7,30.15,SW,219,0.0,0.0,87,0.00,,,0.00,WeatherDisplay:10.37,2013-01-09 03:39:00,
2013-01-08 19:44:00,47.3,43.9,30.15,SSW,195,1.2,1.2,88,0.00,,,0.00,WeatherDisplay:10.37,2013-01-09 03:44:00,
2013-01-08 19:49:00,47.3,44.2,30.16,SSW,195,0.0,0.0,89,0.00,,,0.00,WeatherDisplay:10.37,2013-01-09 03:49:00,
2013-01-08 19:54:00,47.1,43.7,30.16,SSW,195,0.0,0.0,88,0.00,,,0.00,WeatherDisplay:10.37,2013-01-09 03:54:00,
2013-01-08 19:59:00,46.8,43.4,30.16,SSW,195,0.0,0.0,88,0.00,,,0.00,WeatherDisplay:10.37,2013-01-09 03:59:00,
2013-01-08 20:04:00,46.6,43.5,30.16,SSW,195,0.0,0.0,89,0.00,,,0.00,WeatherDisplay:10.37,2013-01-09 04:04:00,
2013-01-08 20:09:00,46.3,43.2,30.15,SSW,195,0.0,0.0,89,0.00,,,0.00,WeatherDisplay:10.37,2013-01-09 04:09:00,
2013-01-08 20:14:00,46.1,43.0,30.15,SSW,195,0.0,0.0,89,0.00,,,0.00,WeatherDisplay:10.37,2013-01-09 04:14:00,
2013-01-08 20:19:00,45.8,42.7,30.15,SSW,195,0.0,0.0,89,0.00,,,0.00,WeatherDisplay:10.37,2013-01-09 04:19:00,
2013-01-08 20:24:00,45.6,42.5,30.15,SSW,195,0.0,0.0,89,0.00,,,0.00,WeatherDisplay:10.37,2013-01-09 04:24:00,
2013-01-08 20:29:00,45.5,42.4,30.15,SSW,195,0.0,0.0,89,0.00,,,0.00,WeatherDisplay:10.37,2013-01-09 04:29:00,
2013-01-08 20:34:00,45.4,42.6,30.15,SSW,195,0.0,0.0,90,0.00,,,0.00,WeatherDisplay:10.37,2013-01-09 04:34:00,
2013-01-08 20:39:00,45.2,42.4,30.15,SSW,195,0.0,0.0,90,0.00,,,0.00,WeatherDisplay:10.37,2013-01-09 04:39:00,
2013-01-08 20:44:00,45.0,42.2,30.15,SSW,195,0.0,0.0,90,0.00,,,0.00,WeatherDisplay:10.37,2013-01-09 04:44:00,
2013-01-08 20:49:00,44.8,42.0,30.15,SSW,195,0.0,0.0,90,0.00,,,0.00,WeatherDisplay:10.37,2013-01-09 04:49:00,
2013-01-08 20:54:00,44.7,42.2,30.16,SSW,195,0.0,0.0,91,0.00,,,0.00,WeatherDisplay:10.37,2013-01-09 04:54:00,
2013-01-08 20:59:00,44.7,42.2,30.15,SSW,195,0.0,0.0,91,0.00,,,0.00,WeatherDisplay:10.37,2013-01-09 04:59:00,
2013-01-08 21:00:00,44.7,42.2,30.15,SSW,195,0.0,0.0,91,0.00,,,0.00,WeatherDisplay:10.37,2013-01-09 05:00:00,
2013-01-08 21:01:00,44.7,42.2,30.15,SSW,195,0.0,0.0,91,0.00,,,0.00,WeatherDisplay:10.37,2013-01-09 05:01:00,
2013-01-08 21:03:00,44.6,42.1,30.15,SSW,195,0.0,0.0,91,0.00,,,0.00,WeatherDisplay:10.37,2013-01-09 05:03:00,
2013-01-08 21:08:00,44.4,41.9,30.15,SSW,195,0.0,0.0,91,0.00,,,0.00,WeatherDisplay:10.37,2013-01-09 05:08:00,
2013-01-08 21:13:00,44.4,41.9,30.15,SSW,195,0.0,0.0,91,0.00,,,0.00,WeatherDisplay:10.37,2013-01-09 05:13:00,
2013-01-08 21:18:00,44.3,41.8,30.15,SSW,195,0.0,0.0,91,0.00,,,0.00,WeatherDisplay:10.37,2013-01-09 05:18:00,
2013-01-08 21:23:00,44.2,41.7,30.15,SSW,195,0.0,0.0,91,0.00,,,0.00,WeatherDisplay:10.37,2013-01-09 05:23:00,
2013-01-08 21:28:00,44.1,41.6,30.15,SSW,195,0.0,0.0,91,0.00,,,0.00,WeatherDisplay:10.37,2013-01-09 05:28:00,
2013-01-08 21:33:00,44.2,42.0,30.16,SSW,195,0.0,0.0,92,0.00,,,0.00,WeatherDisplay:10.37,2013-01-09 05:33:00,
2013-01-08 21:38:00,44.2,42.0,30.16,SSW,195,0.0,0.0,92,0.00,,,0.00,WeatherDisplay:10.37,2013-01-09 05:38:00,
2013-01-08 21:43:00,44.0,41.8,30.15,SSW,195,0.0,0.0,92,0.00,,,0.00,WeatherDisplay:10.37,2013-01-09 05:43:00,
2013-01-08 21:48:00,43.8,41.3,30.15,SSW,195,0.0,0.0,91,0.00,,,0.00,WeatherDisplay:10.37,2013-01-09 05:48:00,
2013-01-08 21:53:00,43.7,41.5,30.15,SSW,195,0.0,0.0,92,0.00,,,0.00,WeatherDisplay:10.37,2013-01-09 05:53:00,
2013-01-08 21:58:00,43.6,41.4,30.15,SSW,195,0.0,0.0,92,0.00,,,0.00,WeatherDisplay:10.37,2013-01-09 05:58:00,
2013-01-08 22:03:00,43.5,41.3,30.15,SSW,195,0.0,0.0,92,0.00,,,0.00,WeatherDisplay:10.37,2013-01-09 06:03:00,
2013-01-08 22:08:00,43.5,41.3,30.16,SSW,195,0.0,0.0,92,0.00,,,0.00,WeatherDisplay:10.37,2013-01-09 06:08:00,
2013-01-08 22:13:00,43.3,41.1,30.16,SSW,195,0.0,0.0,92,0.00,,,0.00,WeatherDisplay:10.37,2013-01-09 06:13:00,
2013-01-08 22:18:00,43.1,40.9,30.16,SSW,195,0.0,0.0,92,0.00,,,0.00,WeatherDisplay:10.37,2013-01-09 06:18:00,
2013-01-08 22:23:00,42.8,40.6,30.16,SSW,195,0.0,0.0,92,0.00,,,0.00,WeatherDisplay:10.37,2013-01-09 06:23:00,
2013-01-08 22:28:00,42.7,40.5,30.16,SSW,195,0.0,0.0,92,0.00,,,0.00,WeatherDisplay:10.37,2013-01-09 06:28:00,
2013-01-08 22:33:00,42.6,40.4,30.16,SSW,195,0.0,0.0,92,0.00,,,0.00,WeatherDisplay:10.37,2013-01-09 06:33:00,
2013-01-08 22:38:00,42.5,40.3,30.16,SSW,195,0.0,0.0,92,0.00,,,0.00,WeatherDisplay:10.37,2013-01-09 06:38:00,
2013-01-08 22:43:00,42.4,40.2,30.16,SSW,195,0.0,0.0,92,0.00,,,0.00,WeatherDisplay:10.37,2013-01-09 06:43:00,
2013-01-08 22:48:00,42.4,40.2,30.16,SSW,195,0.0,0.0,92,0.00,,,0.00,WeatherDisplay:10.37,2013-01-09 06:48:00,
2013-01-08 22:53:00,42.3,40.1,30.16,SSW,195,0.0,0.0,92,0.00,,,0.00,WeatherDisplay:10.37,2013-01-09 06:53:00,
2013-01-08 22:58:00,42.2,40.0,30.16,SSW,195,0.0,0.0,92,0.00,,,0.00,WeatherDisplay:10.37,2013-01-09 06:58:00,
2013-01-08 23:03:00,42.0,39.8,30.16,SSW,195,0.0,0.0,92,0.00,,,0.00,WeatherDisplay:10.37,2013-01-09 07:03:00,
2013-01-08 23:08:00,41.8,39.6,30.16,SSW,195,0.0,0.0,92,0.00,,,0.00,WeatherDisplay:10.37,2013-01-09 07:08:00,
2013-01-08 23:13:00,41.8,39.6,30.16,SSW,195,0.0,0.0,92,0.00,,,0.00,WeatherDisplay:10.37,2013-01-09 07:13:00,
2013-01-08 23:18:00,41.7,39.5,30.16,SSW,195,0.0,0.0,92,0.00,,,0.00,WeatherDisplay:10.37,2013-01-09 07:18:00,
2013-01-08 23:23:00,41.7,39.8,30.16,SSW,195,0.0,0.0,93,0.00,,,0.00,WeatherDisplay:10.37,2013-01-09 07:23:00,
2013-01-08 23:28:00,41.7,39.8,30.16,SSW,195,0.0,0.0,93,0.00,,,0.00,WeatherDisplay:10.37,2013-01-09 07:28:00,
2013-01-08 23:33:00,41.7,39.8,30.16,SSW,195,0.0,0.0,93,0.00,,,0.00,WeatherDisplay:10.37,2013-01-09 07:33:00,
2013-01-08 23:38:00,41.7,39.8,30.16,SSW,195,0.0,0.0,93,0.00,,,0.00,WeatherDisplay:10.37,2013-01-09 07:38:00,
2013-01-08 23:43:00,41.7,39.8,30.16,SSW,195,0.0,0.0,93,0.00,,,0.00,WeatherDisplay:10.37,2013-01-09 07:43:00,
2013-01-08 23:48:00,41.9,40.0,30.16,SSW,196,0.0,0.0,93,0.00,,,0.00,WeatherDisplay:10.37,2013-01-09 07:48:00,
2013-01-08 23:53:00,42.0,40.1,30.16,SSW,195,0.0,0.0,93,0.00,,,0.00,WeatherDisplay:10.37,2013-01-09 07:53:00,
2013-01-08 23:58:00,42.2,40.3,30.16,SSW,196,0.0,0.0,93,0.00,,,0.00,WeatherDisplay:10.37,2013-01-09 07:58:00,